Location: Old Broadwell Mill Observatory
(33.8015°N, 85.8137°W)
Time: 11:59:29
(UTC-05:00)

Amateur Radio Satellites - All Passes

Search period start: 23 July 2016 11:29
Search period end: 24 July 2016 11:29
Location: Old Broadwell Mill Observatory, 33.8015°N, 85.8137°W

Satellite Date Start Highest point End Downlink Frequencies (MHz)
Time Altitude Azimuth
CUBEBUG 1 23 Jul 11:30:41 11:33:45 18° 95° (E) 11:36:48 437.445
Cosmos 2491 23 Jul 11:32:17 11:36:48 15° 281° (W) 11:41:21 435.465 / 435.565
AUBIESAT-1 23 Jul 11:33:45 11:37:46 30° 293° (WNW) 11:41:47 437.475
Cosmos 2504 23 Jul 11:36:59 11:45:44 89° 275° (W) 11:54:42 435.465 / 435.565
NANOSAT C BR1 23 Jul 11:42:37 11:46:48 77° 257° (WSW) 11:51:04 145.865
DELFI C3 23 Jul 11:43:17 11:44:27 11° 293° (WNW) 11:45:36 145.870
DUCHIFAT 1 23 Jul 11:49:09 11:53:19 68° 259° (W) 11:57:33 145.980
JAS-2 23 Jul 11:53:28 11:59:29 43° 72° (ENE) 12:04:52 435.910
AISAT 23 Jul 12:01:02 12:05:12 38° 99° (E) 12:09:21 437.250
QB50P1 23 Jul 12:02:41 12:06:39 40° 261° (W) 12:10:40 145.935-145.965
POPSAT HIP 1 23 Jul 12:08:51 12:12:41 34° 262° (W) 12:16:35 437.405
DX 1 23 Jul 12:16:31 12:20:36 38° 99° (E) 12:24:42 434.975-435.025
ESTCUBE 1 23 Jul 12:17:22 12:21:51 77° 285° (WNW) 12:26:19 437.505/2401.250
BUGSAT 1 23 Jul 12:22:21 12:26:21 64° 259° (W) 12:30:25 437.445
QB50P2 23 Jul 12:29:39 12:32:37 19° 265° (W) 12:35:37 145.880/145.840
POLYITAN 1 23 Jul 12:32:20 12:35:16 18° 265° (W) 12:38:13 437.675
Oscar 19 23 Jul 12:34:02 12:38:08 25° 68° (ENE) 12:42:15 437.125/150
UKube-1 23 Jul 12:38:30 12:42:45 56° 101° (E) 12:46:59 .
50 SAT 23 Jul 12:40:55 12:44:26 54° 285° (WNW) 12:47:57 437.505
VELOX 1 23 Jul 12:52:56 12:57:15 53° 286° (WNW) 13:01:34 145.980
TISAT 1 23 Jul 12:57:49 13:00:19 15° 94° (E) 13:02:47 437.305
CUBEBUG 1 23 Jul 13:06:09 13:10:01 31° 288° (WNW) 13:13:54 437.445
Gurwin Techsat 1B 23 Jul 13:18:38 13:23:13 30° 69° (ENE) 13:27:48 435.225
SPROUT 23 Jul 13:20:32 13:24:45 54° 285° (WNW) 13:28:57 437.525
RS-15 23 Jul 13:35:13 13:41:21 15° 19° (NNE) 13:47:30 29.354- 29.394
Cosmos 2504 23 Jul 13:35:15 13:40:15 16° 293° (WNW) 13:45:18 435.465 / 435.565
AISAT 23 Jul 13:38:36 13:41:19 16° 293° (WNW) 13:44:03 437.250
JAS-2 23 Jul 13:39:32 13:44:33 24° 263° (W) 13:49:12 435.910
DX 1 23 Jul 13:53:53 13:56:26 15° 293° (WNW) 13:59:00 434.975-435.025
AIST 1 23 Jul 13:56:53 14:01:07 89° 270° (W) 14:05:24
ITAMSAT 1 23 Jul 13:58:48 14:02:54 24° 68° (ENE) 14:07:01 435.822/435.867
SWISSCUBE 23 Jul 14:05:06 14:08:20 18° 95° (E) 14:11:34 437.505
Oscar 19 23 Jul 14:12:45 14:17:16 31° 263° (W) 14:21:48 437.125/150
UKube-1 23 Jul 14:17:13 14:18:16 11° 295° (WNW) 14:19:20 .
AO-85 23 Jul 14:19:02 14:24:19 55° 115° (ESE) 14:29:28 145.980
BEESAT 23 Jul 14:26:18 14:30:23 28° 97° (E) 14:34:25 436.000
TISAT 1 23 Jul 14:32:09 14:36:01 35° 288° (WNW) 14:39:54 437.305
ITUPSAT 1 23 Jul 14:46:07 14:50:41 45° 99° (E) 14:55:14 437.325
Cosmos 2499 23 Jul 14:52:28 14:58:46 22° 82° (E) 15:05:02 435.465 / 435.565
Gurwin Techsat 1B 23 Jul 14:58:35 15:03:04 28° 263° (W) 15:07:35 435.225
AO-7 23 Jul 15:04:50 15:12:55 57° 68° (ENE) 15:21:03 29.400- 29.500
GONETS M04 23 Jul 15:05:18 15:13:05 39° 87° (E) 15:20:52
DANDE 23 Jul 15:34:22 15:36:12 17° 78° (ENE) 15:38:06 436.750
ITAMSAT 1 23 Jul 15:37:23 15:42:07 35° 262° (W) 15:46:53 435.822/435.867
SWISSCUBE 23 Jul 15:41:50 15:46:13 37° 288° (WNW) 15:50:32 437.505
KKS-1 23 Jul 15:42:07 15:45:19 19° 95° (E) 15:48:30 437.445
MOZHAYETS 4 23 Jul 15:45:19 15:48:55 23° 95° (E) 15:52:28
RS-15 23 Jul 15:47:03 15:58:37 43° 49° (NE) 16:09:58 29.354- 29.394
CUSAT 1 23 Jul 15:50:43 15:53:28 36° 263° (W) 15:56:46 437.405
HORYU 2 23 Jul 16:00:46 16:03:55 19° 68° (ENE) 16:07:04 437.375
AO-85 23 Jul 16:01:14 16:05:05 20° 309° (NW) 16:08:51 145.980
BEESAT 23 Jul 16:04:10 16:08:00 24° 291° (WNW) 16:11:48 436.000
ITUPSAT 1 23 Jul 16:25:18 16:28:06 16° 294° (WNW) 16:30:54 437.325
STARS 23 Jul 16:31:44 16:35:46 33° 98° (E) 16:39:47 437.465
Cosmos 2499 23 Jul 16:42:13 16:51:01 70° 278° (W) 16:59:52 435.465 / 435.565
NOAA 18 23 Jul 16:49:19 16:51:15 12° 61° (ENE) 16:53:12 137.9125
CUTE-I 23 Jul 16:49:28 16:50:36 11° 62° (ENE) 16:51:44 437.470
CUBESAT XI-V 23 Jul 16:54:14 16:56:35 14° 93° (E) 16:58:56 437.345
AO-7 23 Jul 16:59:08 17:05:56 28° 263° (W) 17:12:48 29.400- 29.500
GONETS M04 23 Jul 17:01:50 17:09:44 39° 284° (WNW) 17:17:43
PHONESAT 2.4 23 Jul 17:06:59 17:08:45 14° 143° (SE) 17:10:32 2401.200-2431.200
KKS-1 23 Jul 17:17:55 17:21:53 31° 289° (WNW) 17:25:50 437.445
NOAA 15 23 Jul 17:19:38 17:24:09 30° 69° (ENE) 17:28:41 137.62
SO-50 23 Jul 17:21:34 17:24:51 19° 50° (NE) 17:28:03 436.795
MOZHAYETS 4 23 Jul 17:22:08 17:26:00 27° 289° (WNW) 17:29:50
HORYU 2 23 Jul 17:36:11 17:40:11 32° 262° (W) 17:44:14 437.375
GOMX 1 23 Jul 17:48:45 17:52:06 24° 71° (ENE) 17:55:31 467.674
RS-15 23 Jul 17:59:34 18:11:26 56° 250° (WSW) 18:23:03 29.354- 29.394
Cubesat XI-IV 23 Jul 17:59:38 18:04:52 55° 73° (ENE) 18:10:07 437.490
BRITE-PL 23 Jul 18:02:34 18:06:49 84° 255° (WSW) 18:10:59 437.365/2234.400
DOVE 4 23 Jul 18:03:35 18:06:05 15° 67° (ENE) 18:08:36 437.250
STARS 23 Jul 18:08:50 18:11:50 18° 292° (WNW) 18:14:51 437.465
LilacSat-2 23 Jul 18:13:03 18:16:53 74° 77° (ENE) 18:20:46 437.200
CUTE-I 23 Jul 18:24:30 18:29:52 84° 257° (WSW) 18:35:17 437.470
NOAA 18 23 Jul 18:25:38 18:31:09 80° 258° (WSW) 18:36:43 137.9125
CUBESAT XI-V 23 Jul 18:29:46 18:34:08 45° 286° (WNW) 18:38:31 437.345
PHONESAT 2.4 23 Jul 18:41:54 18:44:58 78° 336° (NNW) 18:48:03 2401.200-2431.200
Cosmos 2499 23 Jul 18:43:20 18:45:40 11° 296° (WNW) 18:47:59 435.465 / 435.565
CINEMA 3 23 Jul 18:45:39 18:47:41 13° 65° (ENE) 18:49:46 145.822/145.860
BEESAT 2 23 Jul 18:49:58 18:52:35 17° 110° (ESE) 18:55:13 435.950
BEESAT 3 23 Jul 18:51:02 18:54:37 36° 113° (ESE) 18:58:15 437.485
NOAA 15 23 Jul 18:59:26 19:03:50 27° 263° (W) 19:08:15 137.62
SO-50 23 Jul 19:01:12 19:05:29 40° 246° (WSW) 19:09:39 436.795
HO-68 23 Jul 19:01:16 19:07:28 33° 65° (ENE) 19:13:41 435.675
SEEDS 23 Jul 19:03:01 19:03:42 10° 66° (ENE) 19:04:24 437.485
COMPASS 1 23 Jul 19:21:33 19:23:08 12° 67° (ENE) 19:24:43 437.405
GOMX 1 23 Jul 19:27:07 19:30:10 20° 265° (W) 19:33:15 467.674
CANX-2 23 Jul 19:33:56 19:38:00 43° 74° (ENE) 19:42:03 2200.000
DOVE 4 23 Jul 19:39:38 19:43:26 34° 263° (W) 19:47:24 437.250
Cubesat XI-IV 23 Jul 19:42:12 19:45:12 15° 267° (W) 19:48:13 437.490
CUTE 1.7 + AOD 2 23 Jul 19:48:02 19:52:13 55° 75° (ENE) 19:56:25 437.475
AAUSAT CUBESAT 2 23 Jul 19:52:09 19:55:22 22° 71° (ENE) 19:58:35 437.432
STRAND 1 23 Jul 19:57:36 20:02:44 77° 102° (ESE) 20:07:49 437.568
UWE-3 23 Jul 20:05:11 20:08:27 20° 69° (ENE) 20:11:47 435.000/436.395/437.385
PCSat 23 Jul 20:11:26 20:16:50 81° 295° (WNW) 20:22:17 145.827
ZACube-1 23 Jul 20:15:28 20:18:18 17° 68° (ENE) 20:21:10 437.345
FUNcube-1 23 Jul 20:16:56 20:19:40 16° 68° (ENE) 20:22:27 145.935
CUBEBUG 2 23 Jul 20:17:35 20:21:47 41° 73° (ENE) 20:26:09 437.445
PHONESAT 2.4 23 Jul 20:19:08 20:21:46 25° 352° (N) 20:24:24 2401.200-2431.200
CINEMA 3 23 Jul 20:20:06 20:24:18 48° 261° (W) 20:28:43 145.822/145.860
BEESAT 2 23 Jul 20:26:39 20:30:09 30° 304° (NW) 20:33:41 435.950
BEESAT 3 23 Jul 20:30:00 20:32:25 16° 309° (NW) 20:34:51 437.485
SEEDS 23 Jul 20:34:44 20:38:53 55° 260° (W) 20:43:03 437.485
Cosmos 2491 23 Jul 20:35:39 20:41:09 19° 81° (E) 20:46:40 435.465 / 435.565
AUBIESAT-1 23 Jul 20:43:48 20:45:30 13° 61° (ENE) 20:47:13 437.475
HO-68 23 Jul 20:48:17 20:54:56 41° 261° (W) 21:01:40 435.675
DELFI C3 23 Jul 20:49:34 20:51:55 15° 69° (ENE) 20:54:16 145.870
COMPASS 1 23 Jul 20:54:13 20:58:15 46° 261° (W) 21:02:17 437.405
Oscar 11 23 Jul 21:03:21 21:07:38 61° 76° (ENE) 21:11:56 145.826/435.025
CANX-2 23 Jul 21:12:09 21:14:00 12° 267° (W) 21:15:51 2200.000
YUBILEINY 23 Jul 21:12:23 21:21:09 62° 81° (E) 21:29:49 435.215
O/OREOS (USA 219) 23 Jul 21:20:15 21:24:43 86° 289° (WNW) 21:29:12 437.305
AAUSAT CUBESAT 2 23 Jul 21:27:20 21:30:42 23° 264° (W) 21:34:05 437.432
ISS 23 Jul 21:30:07 21:32:51 25° 130° (SE) 21:35:37 145.825
PRISM 23 Jul 21:35:33 21:39:36 63° 285° (WNW) 21:43:39 437.425
Cosmos 2504 23 Jul 21:36:28 21:43:04 26° 72° (ENE) 21:49:16 435.465 / 435.565
STRAND 1 23 Jul 21:40:06 21:41:11 11° 297° (WNW) 21:42:18 437.568
UWE-3 23 Jul 21:40:39 21:44:38 32° 263° (W) 21:48:45 435.000/436.395/437.385
M-CUBED/EXP-1 PRIME 23 Jul 21:46:21 21:49:52 74° 254° (WSW) 21:53:43 437.505
ZACube-1 23 Jul 21:50:04 21:54:13 38° 262° (W) 21:58:28 437.345
FUNcube-1 23 Jul 21:51:21 21:55:31 39° 262° (W) 21:59:48 145.935
AIST 2 23 Jul 21:53:07 21:57:13 85° 302° (WNW) 22:01:21 435.215
CUBEBUG 2 23 Jul 21:56:01 21:58:35 15° 268° (W) 22:01:12 437.445
PHONESAT 2.4 23 Jul 21:56:10 21:58:49 25° 9° (N) 22:01:27 2401.200-2431.200
PCSat 23 Jul 21:59:50 22:01:04 11° 313° (NW) 22:02:17 145.827
HUMSAT D 23 Jul 22:03:12 22:07:25 59° 75° (ENE) 22:11:40 437.325/437.525
ANTELSAT 23 Jul 22:09:14 22:12:40 20° 94° (E) 22:16:02 437.575/2403.000
AUBIESAT-1 23 Jul 22:16:12 22:19:32 36° 258° (WSW) 22:23:07 437.475
DELFI C3 23 Jul 22:22:54 22:26:28 31° 262° (W) 22:30:03 145.870
Cosmos 2491 23 Jul 22:28:17 22:36:58 74° 277° (W) 22:45:42 435.465 / 435.565
TIGRISAT 23 Jul 22:51:10 22:55:46 59° 101° (E) 23:00:15 435.000
AISAT 23 Jul 22:55:14 22:58:32 21° 69° (ENE) 23:01:51 437.250
AO-85 23 Jul 22:56:35 22:59:04 15° 48° (NE) 23:01:28 145.980
UNISAT 6 23 Jul 23:06:09 23:10:50 86° 284° (WNW) 23:15:22 437.425
ISS 23 Jul 23:06:32 23:09:14 24° 325° (NW) 23:11:57 145.825
DX 1 23 Jul 23:08:53 23:12:07 21° 69° (ENE) 23:15:21 434.975-435.025
YUBILEINY 23 Jul 23:10:37 23:17:10 24° 277° (W) 23:23:41 435.215
ESTCUBE 1 23 Jul 23:12:43 23:17:08 59° 75° (ENE) 23:21:33 437.505/2401.250
50 SAT 23 Jul 23:14:37 23:17:55 31° 73° (ENE) 23:21:12 437.505
Cosmos 2504 23 Jul 23:28:59 23:36:47 52° 270° (W) 23:44:02 435.465 / 435.565
UKube-1 23 Jul 23:29:29 23:33:08 28° 71° (ENE) 23:36:49 .
NANOSAT C BR1 23 Jul 23:31:32 23:34:54 22° 96° (E) 23:38:15 145.865
PHONESAT 2.4 23 Jul 23:32:31 23:35:36 81° 24° (NNE) 23:38:39 2401.200-2431.200
DUCHIFAT 1 23 Jul 23:37:38 23:41:09 25° 96° (E) 23:44:38 145.980
ANTELSAT 23 Jul 23:45:17 23:49:22 31° 289° (WNW) 23:53:22 437.575/2403.000
VELOX 1 23 Jul 23:45:57 23:50:19 82° 76° (ENE) 23:54:42 145.980
QB50P1 23 Jul 23:51:04 23:55:08 41° 99° (E) 23:59:11 145.935-145.965
POPSAT HIP 1 23 Jul 23:57:04 00:01:15 48° 100° (E) 00:05:22 437.405
CUBEBUG 1 23 Jul 23:57:33 00:01:48 62° 259° (W) 00:06:05 437.445
BUGSAT 1 24 Jul 00:08:23 00:11:51 24° 96° (E) 00:15:18 437.445
AIST 1 24 Jul 00:09:08 00:11:43 15° 75° (ENE) 00:14:16
SPROUT 24 Jul 00:09:46 00:13:58 66° 76° (ENE) 00:18:13 437.525
QB50P2 24 Jul 00:16:53 00:21:12 86° 281° (W) 00:25:28 145.880/145.840
POLYITAN 1 24 Jul 00:19:32 00:23:51 84° 283° (WNW) 00:28:08 437.675
TIGRISAT 24 Jul 00:30:17 00:31:51 12° 295° (WNW) 00:33:24 435.000
AISAT 24 Jul 00:31:07 00:34:49 27° 263° (W) 00:38:34 437.250
Cosmos 2491 24 Jul 00:33:01 00:35:18 11° 296° (WNW) 00:37:36 435.465 / 435.565
AO-85 24 Jul 00:35:46 00:39:49 44° 246° (WSW) 00:43:34 145.980
DX 1 24 Jul 00:44:26 00:48:06 27° 263° (W) 00:51:48 434.975-435.025
50 SAT 24 Jul 00:50:06 00:51:36 12° 266° (W) 00:53:06 437.505
JAS-2 24 Jul 00:50:39 00:55:46 49° 101° (E) 01:01:19 435.910
Oscar 19 24 Jul 00:51:18 00:52:54 11° 92° (E) 00:54:31 437.125/150
UKube-1 24 Jul 01:06:01 01:09:08 20° 264° (W) 01:12:17 .
NANOSAT C BR1 24 Jul 01:07:04 01:10:31 24° 289° (WNW) 01:13:58 145.865
SWISSCUBE 24 Jul 01:08:42 01:11:16 14° 66° (ENE) 01:13:49 437.505
PHONESAT 2.4 24 Jul 01:10:09 01:11:48 14° 218° (SW) 01:13:27 2401.200-2431.200
DUCHIFAT 1 24 Jul 01:13:23 01:16:41 22° 290° (WNW) 01:19:58 145.980
TISAT 1 24 Jul 01:19:13 01:23:23 83° 256° (WSW) 01:27:36 437.305
GONETS M04 24 Jul 01:22:09 01:26:36 15° 66° (ENE) 01:31:03
QB50P1 24 Jul 01:28:19 01:30:31 14° 293° (WNW) 01:32:42 145.935-145.965
BEESAT 24 Jul 01:29:19 01:32:56 22° 68° (ENE) 01:36:33 436.000
POPSAT HIP 1 24 Jul 01:34:53 01:36:33 12° 294° (WNW) 01:38:12 437.405
Gurwin Techsat 1B 24 Jul 01:39:40 01:42:53 16° 93° (E) 01:46:06 435.225
BUGSAT 1 24 Jul 01:43:44 01:47:04 23° 290° (WNW) 01:50:24 437.445
AIST 1 24 Jul 01:45:27 01:49:22 34° 269° (W) 01:53:18
ITUPSAT 1 24 Jul 01:49:03 01:53:23 34° 71° (ENE) 01:57:43 437.325
JUGNU 24 Jul 02:12:13 02:14:27 12° 165° (SSE) 02:16:40 437.505
ITAMSAT 1 24 Jul 02:18:06 02:18:56 10° 91° (E) 02:19:46 435.822/435.867
Oscar 19 24 Jul 02:27:27 02:32:35 67° 285° (WNW) 02:37:43 437.125/150
JAS-2 24 Jul 02:37:14 02:40:33 17° 293° (WNW) 02:43:59 435.910
KKS-1 24 Jul 02:38:21 02:39:44 11° 65° (ENE) 02:41:06 437.445
Cosmos 2499 24 Jul 02:40:00 02:46:58 33° 74° (ENE) 02:53:27 435.465 / 435.565
SWISSCUBE 24 Jul 02:43:55 02:48:34 50° 260° (W) 02:53:15 437.505
MOZHAYETS 4 24 Jul 02:44:26 02:46:59 15° 67° (ENE) 02:49:32
BEESAT 24 Jul 03:06:12 03:10:28 32° 262° (W) 03:14:46 436.000
CUSAT 1 24 Jul 03:09:21 03:12:18 16° 95° (E) 03:14:53 437.405
AO-7 24 Jul 03:12:10 03:18:20 22° 95° (E) 03:24:26 29.400- 29.500
GONETS M04 24 Jul 03:15:45 03:24:36 87° 84° (E) 03:33:27
Gurwin Techsat 1B 24 Jul 03:17:55 03:23:03 51° 287° (WNW) 03:28:10 435.225
STARS 24 Jul 03:25:20 03:28:24 19° 68° (ENE) 03:31:29 437.465
ITUPSAT 1 24 Jul 03:27:44 03:31:14 20° 265° (W) 03:34:45 437.325
ITAMSAT 1 24 Jul 03:53:39 03:58:50 72° 285° (WNW) 04:03:58 435.822/435.867
JUGNU 24 Jul 03:58:40 04:02:45 19° 174° (S) 04:06:50 437.505
KKS-1 24 Jul 04:11:25 04:15:45 56° 259° (W) 04:20:08 437.445
MOZHAYETS 4 24 Jul 04:19:16 04:23:43 46° 261° (W) 04:28:11
SRMSAT 24 Jul 04:22:20 04:24:09 11° 164° (SSE) 04:25:57 437.500
Cosmos 2499 24 Jul 04:33:01 04:40:01 38° 273° (W) 04:46:35 435.465 / 435.565
DANDE 24 Jul 04:35:47 04:42:22 64° 97° (E) 04:47:18 436.750
BEESAT 2 24 Jul 04:47:44 04:51:34 42° 58° (ENE) 04:55:20 435.950
BEESAT 3 24 Jul 04:48:52 04:52:51 90° 243° (WSW) 04:56:47 437.485
CUSAT 1 24 Jul 04:49:55 04:54:12 29° 278° (W) 04:57:39 437.405
STARS 24 Jul 05:00:37 05:04:30 31° 262° (W) 05:08:25 437.465
AO-7 24 Jul 05:03:18 05:11:33 67° 291° (WNW) 05:19:45 29.400- 29.500
PCSat 24 Jul 05:03:31 05:08:27 35° 58° (ENE) 05:13:23 145.827
GONETS M04 24 Jul 05:15:41 05:20:10 15° 281° (W) 05:24:40
CUBESAT XI-V 24 Jul 05:28:37 05:33:14 75° 258° (WSW) 05:37:51 437.345
HORYU 2 24 Jul 05:30:25 05:34:52 63° 101° (ESE) 05:39:16 437.375
ISS 24 Jul 05:36:31 05:39:45 60° 42° (NE) 05:42:58 145.825
NOAA 15 24 Jul 05:39:40 05:42:40 15° 93° (E) 05:45:40 137.62
JUGNU 24 Jul 05:46:58 05:51:07 20° 185° (S) 05:55:14 437.505
LilacSat-2 24 Jul 05:52:58 05:53:46 11° 92° (E) 05:54:35 437.200
GOMX 1 24 Jul 05:54:35 05:56:50 13° 93° (E) 05:59:07 467.674
RS-15 24 Jul 06:06:20 06:16:05 35° 105° (ESE) 06:26:15 29.354- 29.394
SRMSAT 24 Jul 06:08:35 06:12:36 19° 173° (S) 06:16:37 437.500
BRITE-PL 24 Jul 06:09:53 06:14:27 42° 99° (E) 06:19:21 437.365/2234.400
AIST 2 24 Jul 06:18:47 06:21:51 20° 52° (NE) 06:24:55 435.215
Cubesat XI-IV 24 Jul 06:21:16 06:25:57 30° 97° (E) 06:30:35 437.490
DANDE 24 Jul 06:22:13 06:24:58 13° 283° (WNW) 06:27:27 436.750
BEESAT 2 24 Jul 06:27:20 06:28:57 12° 252° (WSW) 06:30:36 435.950
CUTE-I 24 Jul 06:45:41 06:50:55 54° 101° (E) 06:56:06 437.470
PCSat 24 Jul 06:47:13 06:51:38 26° 253° (WSW) 06:56:02 145.827
NOAA 18 24 Jul 06:51:46 06:57:16 61° 102° (ESE) 07:02:42 137.9125
AO-7 24 Jul 06:59:55 07:02:44 12° 309° (NW) 07:05:34 29.400- 29.500
STRAND 1 24 Jul 07:09:23 07:14:30 74° 75° (ENE) 07:19:40 437.568
HORYU 2 24 Jul 07:10:09 07:10:50 10° 296° (WNW) 07:11:30 437.375
NOAA 15 24 Jul 07:17:35 07:22:41 53° 287° (WNW) 07:27:47 137.62
LilacSat-2 24 Jul 07:24:36 07:28:14 40° 286° (WNW) 07:31:50 437.200
GOMX 1 24 Jul 07:30:08 07:35:06 62° 284° (WNW) 07:40:20 467.674
SO-50 24 Jul 07:32:55 07:35:34 15° 108° (ESE) 07:38:13 436.795
O/OREOS (USA 219) 24 Jul 07:34:01 07:38:34 87° 255° (WSW) 07:43:08 437.305
JUGNU 24 Jul 07:36:50 07:39:25 13° 194° (SSW) 07:41:59 437.505
CUTE 1.7 + AOD 2 24 Jul 07:38:46 07:40:36 13° 93° (E) 07:42:25 437.475
DOVE 4 24 Jul 07:40:49 07:45:58 79° 102° (ESE) 07:51:16 437.250
BRITE-PL 24 Jul 07:49:27 07:52:39 18° 290° (WNW) 07:56:00 437.365/2234.400
AIST 2 24 Jul 07:56:39 08:00:23 32° 247° (WSW) 08:04:04 435.215
SRMSAT 24 Jul 07:56:55 08:01:07 20° 184° (S) 08:05:17 437.500
Cubesat XI-IV 24 Jul 08:01:23 08:05:52 28° 291° (WNW) 08:10:20 437.490
CUBEBUG 2 24 Jul 08:14:18 08:16:20 13° 91° (E) 08:18:20 437.445
RS-15 24 Jul 08:16:36 08:27:48 59° 304° (NW) 08:39:40 29.354- 29.394
CINEMA 3 24 Jul 08:18:07 08:23:04 55° 100° (E) 08:27:56 145.822/145.860
YUBILEINY 24 Jul 08:18:37 08:21:15 12° 77° (ENE) 08:23:54 435.215
HO-68 24 Jul 08:19:44 08:26:40 49° 101° (E) 08:33:33 435.675
PRISM 24 Jul 08:20:53 08:24:50 50° 74° (ENE) 08:28:47 437.425
SEEDS 24 Jul 08:22:44 08:26:27 30° 97° (E) 08:30:07 437.485
CUTE-I 24 Jul 08:27:15 08:30:27 16° 295° (WNW) 08:33:39 437.470
NOAA 18 24 Jul 08:34:11 08:37:20 16° 297° (WNW) 08:40:29 137.9125
COMPASS 1 24 Jul 08:40:58 08:44:44 34° 98° (E) 08:48:29 437.405
Cosmos 2491 24 Jul 08:43:38 08:52:00 47° 78° (ENE) 09:00:19 435.465 / 435.565
Oscar 11 24 Jul 08:55:54 08:58:22 15° 93° (E) 09:00:50 145.826/435.025
CANX-2 24 Jul 08:58:23 09:02:29 52° 285° (WNW) 09:06:34 2200.000
ANTELSAT 24 Jul 09:05:47 09:07:33 12° 65° (ENE) 09:09:19 437.575/2403.000
SO-50 24 Jul 09:10:49 09:15:35 53° 302° (WNW) 09:20:21 436.795
AAUSAT CUBESAT 2 24 Jul 09:12:29 09:16:35 69° 101° (E) 09:20:40 437.432
CUTE 1.7 + AOD 2 24 Jul 09:12:38 09:16:35 40° 286° (WNW) 09:20:31 437.475
DOVE 4 24 Jul 09:21:46 09:23:00 11° 295° (WNW) 09:24:13 437.250
M-CUBED/EXP-1 PRIME 24 Jul 09:30:33 09:32:42 13° 97° (E) 09:34:50 437.505
UWE-3 24 Jul 09:33:40 09:38:18 71° 101° (E) 09:42:46 435.000/436.395/437.385
ZACube-1 24 Jul 09:42:06 09:46:33 55° 100° (E) 09:50:51 437.345
FUNcube-1 24 Jul 09:43:08 09:47:31 52° 99° (E) 09:51:47 145.935
TIGRISAT 24 Jul 09:45:51 09:49:54 32° 71° (ENE) 09:54:02 435.000
SRMSAT 24 Jul 09:46:43 09:49:34 14° 194° (SSW) 09:52:27 437.500
CUBEBUG 2 24 Jul 09:48:37 09:53:13 51° 285° (WNW) 09:57:40 437.445
HUMSAT D 24 Jul 09:52:38 09:54:22 12° 92° (E) 09:56:06 437.325/437.525
CINEMA 3 24 Jul 09:56:57 09:59:39 15° 294° (WNW) 10:02:21 145.822/145.860
AUBIESAT-1 24 Jul 09:58:23 10:01:58 22° 100° (E) 10:05:32 437.475
SEEDS 24 Jul 09:59:10 10:01:52 17° 291° (WNW) 10:04:34 437.485
UNISAT 6 24 Jul 10:00:39 10:05:04 51° 74° (ENE) 10:09:35 437.425
DELFI C3 24 Jul 10:03:58 10:07:40 39° 99° (E) 10:11:22 145.870
YUBILEINY 24 Jul 10:07:46 10:16:31 80° 94° (E) 10:25:20 435.215
HO-68 24 Jul 10:08:07 10:13:59 28° 296° (WNW) 10:19:51 435.675
Cosmos 2504 24 Jul 10:09:08 10:16:01 27° 83° (E) 10:22:57 435.465 / 435.565
COMPASS 1 24 Jul 10:17:36 10:19:58 15° 292° (WNW) 10:22:20 437.405
NANOSAT C BR1 24 Jul 10:22:25 10:23:14 10° 66° (ENE) 10:24:04 145.865
DUCHIFAT 1 24 Jul 10:27:45 10:29:11 11° 66° (ENE) 10:30:35 145.980
Oscar 11 24 Jul 10:30:38 10:34:36 36° 287° (WNW) 10:38:32 145.826/435.025
RS-15 24 Jul 10:36:08 10:43:39 18° 333° (NNW) 10:51:24 29.354- 29.394
ANTELSAT 24 Jul 10:39:11 10:43:40 57° 260° (W) 10:48:16 437.575/2403.000
QB50P1 24 Jul 10:40:28 10:43:27 19° 69° (ENE) 10:46:29 145.935-145.965
Cosmos 2491 24 Jul 10:41:01 10:48:25 32° 275° (W) 10:55:53 435.465 / 435.565
POPSAT HIP 1 24 Jul 10:46:17 10:49:33 22° 70° (ENE) 10:52:50 437.405
JAS-2 24 Jul 11:01:47 11:04:49 14° 65° (ENE) 11:07:43 435.910
M-CUBED/EXP-1 PRIME 24 Jul 11:02:49 11:07:24 56° 290° (WNW) 11:11:59 437.505
QB50P2 24 Jul 11:05:32 11:09:29 40° 73° (ENE) 11:13:30 145.880/145.840
POLYITAN 1 24 Jul 11:08:08 11:12:08 41° 73° (ENE) 11:16:10 437.675
ESTCUBE 1 24 Jul 11:10:16 11:13:08 17° 94° (E) 11:15:59 437.505/2401.250
ZACube-1 24 Jul 11:20:41 11:22:16 12° 295° (WNW) 11:23:49 437.345
FUNcube-1 24 Jul 11:21:29 11:23:13 12° 294° (WNW) 11:24:57 145.935
